Tri-Cities, TN

10:24 AM EDT on June 24, 2017 (GMT -0400)
Tri-Cities Regional Tennessee / Virginia

Weather History for KTRI - July, 2013

Change the Weather History Date:

Wednesday, July 3, 2013

  Actual Average Record
Temperature  
Mean Temperature 69 °F 74 °F  
Max Temperature 73 °F 85 °F 95 °F (1970)
Min Temperature 64 °F 64 °F 51 °F (2009)
Degree Days  
Heating Degree Days 0 0  
Month to date heating degree days 0 0  
Since 1 June heating degree days 0 11  
Since 1 July heating degree days 0 0  
Cooling Degree Days 4 9  
Month to date cooling degree days 24 27  
Year to date cooling degree days 325 306  
Since 1 June cooling degree days 253 233  
Growing Degree Days 18 (Base 50)    
Moisture  
Dew Point 66 °F    
Average Humidity 92    
Maximum Humidity 100    
Minimum Humidity 84    
Precipitation  
Precipitation 1.65 in 0.15 in 2.13 in (2002)
Month to date precipitation 1.96 0.43  
Year to date precipitation 35.02 21.72  
Snow  
Snow 0.00 in 0.00 in - ()
Month to date snowfall 0.0 0.0  
Since 1 June snowfall 0.0 0.0  
Since 1 July snowfall 0.0 0.0  
Snow Depth 0.00 in    
Sea Level Pressure  
Sea Level Pressure 30.16 in    
Wind  
Wind Speed 3 mph (ESE)    
Max Wind Speed 12 mph    
Max Gust Speed 14 mph    
Visibility 6 miles    
Events Rain    
T = Trace of Precipitation, MM = Missing Value Source: NWS Daily Summary

Daily Weather History Graph

Daily Weather History Graph

Search for Another Location

Airport or City:

Trip Planner

Search our weather history database for the weather conditions in past years. The results will help you decide how hot, cold, wet, or windy it might be!

Date:

Astronomy

Jul. 03, 2013 Rise Set
Actual Time 6:16 AM EDT 8:51 PM EDT
Civil Twilight 5:45 AM EDT 9:21 PM EDT
Nautical Twilight 5:08 AM EDT 9:59 PM EDT
Astronomical Twilight 4:26 AM EDT 10:41 PM EDT
Moon 2:50 AM EDT (7/3) 5:03 PM EDT (7/3)
Length of Visible Light 15h 35m
Length of Day
14h 35m
Waning Crescent, 18% of the Moon is Illuminated
Jul 3
Waning Crescent
Jul 8
New
Jul 15
First Quarter
Jul 22
Full
Jul 29
Last Quarter

Hourly Weather History & Observations

Time (EDT) Temp. Dew Point Humidity Pressure Visibility Wind Dir Wind Speed Gust Speed Precip Events Conditions
12:53 AM 66.9 °F 64.9 °F 93% 30.06 in 5.0 mi Calm Calm - N/A   Mostly Cloudy
1:53 AM 69.1 °F 64.9 °F 87% 30.05 in 10.0 mi Calm Calm - N/A   Scattered Clouds
2:53 AM 66.9 °F 64.9 °F 93% 30.05 in 8.0 mi Calm Calm - N/A   Clear
3:53 AM 66.9 °F 64.9 °F 93% 30.05 in 10.0 mi Calm Calm - N/A   Scattered Clouds
4:53 AM 66.9 °F 64.9 °F 93% 30.07 in 8.0 mi Calm Calm - 0.01 in Rain Light Rain
5:53 AM 68.0 °F 64.9 °F 90% 30.08 in 10.0 mi NNE 3.5 mph - 0.00 in Rain Light Rain
6:53 AM 68.0 °F 64.9 °F 90% 30.10 in 10.0 mi Calm Calm - 0.00 in   Mostly Cloudy
7:53 AM 68.0 °F 64.9 °F 90% 30.12 in 10.0 mi Calm Calm - 0.00 in   Overcast
8:53 AM 69.1 °F 66.0 °F 90% 30.14 in 10.0 mi East 4.6 mph - 0.00 in   Overcast
9:53 AM 70.0 °F 66.9 °F 90% 30.15 in 8.0 mi East 4.6 mph - 0.01 in Rain Light Rain
10:39 AM 70.0 °F 66.9 °F 90% 30.22 in 2.0 mi Calm Calm - 0.09 in Rain Heavy Rain
10:53 AM 70.0 °F 68.0 °F 93% 30.16 in 2.0 mi East 4.6 mph - 0.13 in Rain Light Rain
11:03 AM 70.0 °F 68.0 °F 93% 30.22 in 5.0 mi East 4.6 mph - 0.00 in Rain Light Rain
11:53 AM 71.1 °F 68.0 °F 90% 30.17 in 2.0 mi Calm Calm - 0.03 in Rain Light Rain
12:26 PM 73.0 °F 69.1 °F 87% 30.23 in 10.0 mi Variable 4.6 mph - 0.25 in Rain Light Rain
12:53 PM 73.0 °F 69.1 °F 87% 30.16 in 10.0 mi Variable 3.5 mph - 0.25 in   Overcast
1:48 PM 71.6 °F 69.8 °F 94% 30.22 in 4.0 mi East 6.9 mph - 0.04 in Rain Light Rain
1:53 PM 72.0 °F 69.1 °F 91% 30.15 in 5.0 mi Variable 5.8 mph - 0.04 in Rain Rain
1:59 PM 72.0 °F 69.1 °F 91% 30.21 in 5.0 mi Variable 4.6 mph - 0.01 in Rain Light Rain
2:53 PM 72.0 °F 68.0 °F 87% 30.14 in 10.0 mi Variable 3.5 mph - 0.01 in   Overcast
3:24 PM 71.1 °F 68.0 °F 90% 30.20 in 2.5 mi Calm Calm - 0.04 in Rain Rain
3:26 PM 71.1 °F 69.1 °F 93% 30.20 in 3.0 mi Calm Calm - 0.04 in Rain Rain
3:49 PM 69.8 °F 68.0 °F 94% 30.21 in 2.5 mi East 3.5 mph - 0.18 in Rain Heavy Rain
3:53 PM 70.0 °F 68.0 °F 93% 30.14 in 2.5 mi ESE 4.6 mph - 0.19 in Rain Rain
4:44 PM 69.1 °F 66.9 °F 93% 30.22 in 2.5 mi SSW 8.1 mph - 0.15 in Rain Rain
4:50 PM 68.0 °F 66.2 °F 94% 30.22 in 2.5 mi South 5.8 mph - 0.16 in Rain Light Rain
4:53 PM 68.0 °F 66.0 °F 93% 30.16 in 2.5 mi South 6.9 mph - 0.17 in Rain Rain
5:11 PM 68.0 °F 66.0 °F 93% 30.22 in 1.2 mi South 5.8 mph - 0.09 in Rain Rain
5:28 PM 66.9 °F 66.0 °F 97% 30.22 in 1.5 mi ESE 3.5 mph - 0.19 in Rain Heavy Rain
5:53 PM 66.9 °F 66.0 °F 97% 30.17 in 2.5 mi SSE 4.6 mph - 0.26 in Rain Rain
6:53 PM 66.0 °F 64.0 °F 93% 30.19 in 2.5 mi South 5.8 mph - 0.26 in Rain Heavy Rain
7:53 PM 66.0 °F 64.0 °F 93% 30.20 in 2.5 mi SE 6.9 mph - 0.22 in Rain Rain
8:53 PM 64.9 °F 63.0 °F 93% 30.18 in 8.0 mi East 5.8 mph - 0.06 in Rain Light Rain
9:53 PM 64.9 °F 63.0 °F 93% 30.17 in 10.0 mi Calm Calm - 0.01 in Rain Light Rain
10:53 PM 64.0 °F 63.0 °F 96% 30.15 in 10.0 mi East 4.6 mph - 0.00 in   Mostly Cloudy
11:53 PM 64.0 °F 63.0 °F 96% 30.16 in 10.0 mi Calm Calm - N/A   Mostly Cloudy